Home   Weather   Jacksonville   Past weeks
Flag for USA

Past Weather in Jacksonville, Florida, USA — Yesterday and Last 2 Weeks

Now
79 °F

Mild.


Feels Like: 82 °F
Forecast: 87 / 68 °F
Wind: 2 mph from West

Location: Bellair-Meadowbrook Terrace - MADIS Station

Current Time: Oct 14, 2019 at 11:35:59 am

Latest Report: Oct 14, 2019 at 10:18 am


Visibility: N/A

Pressure: 30.07 "Hg

Humidity: 78%

Dew Point: 72 °F

Location of JacksonvilleLocation

Past Weather in Jacksonville — Graph

°F

Jacksonville Temperature Yesterday

Maximum temperature yesterday: 89 °F (at 2:33 pm)
Minimum temperature yesterday: 68 °F (at 7:18 am)
Average temperature yesterday: 75 °F

High & Low Weather Summary for the Past Weeks

 TemperatureHumidityPressure
High92 °F (Oct 4, 3:18 pm)97% (Oct 8, 1:33 am)30.15 "Hg (Oct 8, 1:33 am)
Low65 °F (Oct 12, 5:33 am)52% (Oct 4, 2:03 pm)29.84 "Hg (Oct 8, 4:18 am)
Average78 °F83%29.99 "Hg
* Reported Sep 29 10:03 am — Oct 14 10:18 am, Jacksonville. Weather by CustomWeather, © 2019

Note: Actual official high and low records may vary slightly from our data, if they occured in-between our weather recording intervals... More about our weather records

Advertising

Jacksonville Weather History for the Previous 24 Hours

Scroll right to see more
 ConditionsComfort  
Time TempWeatherWind HumidityBarometerVisibility
10:18 am
Mon, Oct 14
79 °FMild.2 mph78%30.07 "HgN/A
10:03 am78 °FMild.1 mph81%30.07 "HgN/A
9:33 am74 °FMild.2 mph90%30.06 "HgN/A
9:03 am71 °FCool.No wind93%30.04 "HgN/A
8:18 am69 °FCool.No wind93%30.04 "HgN/A
8:03 am68 °FCool.No wind93%30.04 "HgN/A
7:18 am68 °FCool.No wind93%30.04 "HgN/A
7:03 am68 °FCool.No wind92%30.03 "HgN/A
6:33 am68 °FCool.No wind93%30.03 "HgN/A
6:18 am68 °FCool.No wind92%30.02 "HgN/A
6:03 am68 °FCool.No wind92%30.02 "HgN/A
5:18 am68 °FCool.No wind92%30.01 "HgN/A
5:03 am68 °FCool.No wind92%30.00 "HgN/A
4:33 am69 °FCool.No wind92%30.00 "HgN/A
4:18 am69 °FCool.No wind91%29.99 "HgN/A
3:33 am69 °FCool.No wind90%30.00 "HgN/A
3:03 am70 °FCool.No wind89%30.01 "HgN/A
2:48 am70 °FCool.No wind89%30.01 "HgN/A
2:18 am71 °FCool.No wind88%30.01 "HgN/A
2:03 am71 °FCool.No wind88%30.02 "HgN/A
1:18 am73 °FMild.1 mph86%30.02 "HgN/A
1:03 am73 °FMild.1 mph85%30.02 "HgN/A
12:33 am73 °FMild.1 mph84%30.02 "HgN/A
12:03 am73 °FMild.2 mph82%30.02 "HgN/A
11:33 pm
Sun, Oct 13
74 °FMild.1 mph82%30.02 "HgN/A
11:18 pm74 °FMild.2 mph81%30.02 "HgN/A
10:48 pm74 °FMild.1 mph80%30.02 "HgN/A
10:03 pm75 °FMild.1 mph78%30.02 "HgN/A
9:33 pm76 °FMild.1 mph76%30.02 "HgN/A
9:18 pm76 °FMild.No wind76%30.01 "HgN/A
9:03 pm76 °FMild.1 mph75%30.01 "HgN/A
8:48 pm76 °FMild.1 mph75%30.01 "HgN/A
8:18 pm76 °FMild.No wind74%30.01 "HgN/A
7:48 pm77 °FMild.No wind72%30.00 "HgN/A
7:33 pm77 °FMild.1 mph71%30.01 "HgN/A
7:18 pm78 °FMild.1 mph70%30.00 "HgN/A
7:03 pm78 °FMild.1 mph70%30.00 "HgN/A
6:03 pm81 °FWarm.2 mph68%29.99 "HgN/A
5:33 pm82 °FWarm.1 mph68%29.98 "HgN/A
5:03 pm83 °FWarm.2 mph66%29.98 "HgN/A
4:33 pm84 °FWarm.2 mph64%29.97 "HgN/A
3:33 pm83 °FWarm.No wind66%29.98 "HgN/A
3:03 pm85 °FWarm.4 mph60%29.99 "HgN/A
2:33 pm89 °FWarm.2 mph52%29.99 "HgN/A
2:03 pm88 °FWarm.1 mph54%30.00 "HgN/A
1:33 pm86 °FWarm.No wind58%30.02 "HgN/A
1:03 pm86 °FWarm.2 mph60%30.03 "HgN/A
12:33 pm85 °FWarm.3 mph63%30.03 "HgN/A
11:48 am82 °FWarm.1 mph68%30.04 "HgN/A
11:18 am81 °FWarm.4 mph69%30.04 "HgN/A
11:03 am81 °FWarm.3 mph71%30.04 "HgN/A
Weather by CustomWeather, © 2019

See weather overview